Wind_Speed
42 42 41 40 39 39 40 41 40 40 39 39 39 38 37 37 36 36 36 36 36 37 38 38 38 37 36 35 35 34 33 33 32 32 32 32 33 33 33 33 32 31 31 30 29 29 29 29 30 31 31 30 29 29 29 29 30 31 31 32 32 32 32 31 29 28 26 25 24 23 22 21 21 20 19 19 19 18 18 17 17 17 17 18 18 18
42 41 41 41 41 40 41 43 43 42 42 42 42 42 41 40 39 39 39 39 39 39 39 39 39 38 37 37 36 35 35 34 33 33 33 33 33 33 33 33 32 31 30 30 29 28 29 29 30 31 31 30 29 29 29 30 30 31 31 32 32 32 31 29 28 26 25 24 23 22 21 21 20 20 20 20 20 19 19 18 17 17 17 17 17 18
42 41 41 42 42 42 42 43 44 44 44 44 45 45 43 42 42 41 41 41 41 41 40 40 40 40 39 38 38 37 36 35 35 34 34 34 34 34 34 33 32 31 30 29 28 28 29 29 30 31 30 30 29 29 29 30 31 31 32 32 31 31 29 28 26 25 23 23 22 21 21 20 20 20 20 20 20 19 19 18 17 17 17 17 17 18
44 43 43 44 44 43 43 43 44 45 45 45 45 45 45 44 44 44 44 43 43 42 42 42 41 41 40 40 40 39 38 37 36 35 35 35 35 35 34 34 33 31 30 29 28 28 29 30 30 31 30 29 28 28 29 30 31 31 32 31 30 29 28 26 25 23 22 22 21 20 20 20 19 19 19 19 19 19 18 17 17 17 17 17 17 18
46 45 45 45 45 45 44 43 43 44 45 45 44 44 44 44 45 45 45 44 44 43 43 43 42 42 42 42 41 40 39 38 37 37 36 36 36 36 35 35 33 32 30 29 28 28 29 30 30 30 29 28 28 28 29 30 31 31 31 30 29 28 26 24 23 22 22 21 20 20 20 19 19 19 19 19 19 18 18 17 17 17 17 18 18 18
48 46 45 45 45 46 45 45 45 45 45 45 44 44 43 44 45 45 45 44 44 43 43 43 43 43 43 43 42 42 40 39 38 38 38 38 38 37 36 35 34 33 31 29 28 28 29 30 30 29 28 28 27 28 29 30 30 30 30 29 27 26 24 23 22 21 21 20 20 20 20 20 20 20 20 20 19 19 18 17 17 17 18 18 19 19
48 46 45 44 44 45 45 45 46 47 46 45 44 43 43 43 44 44 45 44 44 43 43 43 43 43 44 44 43 42 41 40 40 39 39 39 38 37 36 36 35 33 31 29 28 29 30 30 29 28 27 27 27 28 29 30 30 29 28 27 25 24 22 21 21 20 20 20 20 20 20 20 20 20 20 20 20 19 19 18 17 17 18 19 19 20
50 48 46 44 43 44 44 45 46 46 46 45 44 43 43 44 44 44 44 43 43 43 43 43 44 44 44 44 44 43 42 41 40 40 40 39 38 38 37 36 35 33 31 29 29 29 29 29 28 27 27 27 27 28 29 29 29 28 26 25 23 22 21 20 20 20 20 20 20 20 20 20 20 20 20 20 20 20 19 18 18 18 19 20 20 21
51 50 49 47 45 44 44 44 45 45 45 44 44 43 44 44 44 44 43 43 44 44 44 44 44 44 44 45 45 44 43 42 41 40 40 39 38 38 37 36 35 32 30 28 28 29 29 28 27 26 26 26 27 28 28 28 27 26 25 23 22 21 20 20 20 19 19 20 20 20 20 20 20 20 20 20 20 19 18 18 18 18 19 20 21 21
50 50 49 49 48 47 45 46 46 46 45 44 44 44 44 44 45 45 45 45 45 46 45 45 45 45 45 45 45 44 43 41 40 40 39 39 38 37 37 35 33 30 28 27 28 28 28 27 26 25 25 26 27 27 27 27 25 24 23 21 20 20 19 19 19 19 20 20 20 20 20 20 20 19 19 19 19 19 18 18 18 19 19 20 20 20
51 51 50 49 49 48 47 47 47 47 47 45 45 45 45 45 45 46 47 48 48 48 47 46 46 46 46 45 45 44 43 41 40 39 38 38 37 37 35 33 30 28 27 26 27 27 26 25 25 24 25 26 26 26 26 25 24 22 21 20 19 19 19 19 19 20 20 20 20 20 20 20 19 19 19 19 19 19 18 19 19 19 19 19 19 19
52 52 52 50 48 48 48 48 48 48 47 45 43 42 44 46 47 47 48 49 50 50 49 48 47 46 45 45 45 43 42 41 41 39 38 37 37 35 33 30 28 26 26 26 26 26 25 24 24 24 24 25 25 25 24 23 22 21 20 19 18 18 19 19 19 20 20 20 20 20 19 19 19 18 19 19 19 19 19 19 19 20 20 19 19 19
54 54 53 51 49 48 48 48 48 47 47 44 42 43 45 48 49 48 47 48 49 50 50 50 48 46 44 43 42 42 41 41 40 39 38 37 36 33 30 27 25 25 25 25 25 24 24 23 23 23 24 24 24 24 23 22 20 19 18 18 18 18 18 19 19 19 19 19 19 19 19 18 18 18 19 19 19 19 19 19 20 20 20 20 20 20
56 55 53 51 50 50 49 49 48 47 47 47 47 48 49 49 49 47 46 46 47 48 49 48 47 45 43 41 40 40 40 40 39 39 38 36 33 31 28 26 24 24 24 24 24 24 23 23 23 23 23 23 23 22 21 20 19 18 17 17 17 18 18 19 19 19 19 19 19 19 18 18 18 18 19 19 19 19 20 20 20 20 20 21 21 21
54 52 49 48 48 48 48 48 48 48 49 49 49 49 49 47 46 46 46 46 46 46 46 46 44 43 41 39 38 39 39 39 39 38 36 34 32 29 27 25 24 24 24 24 23 23 22 22 22 22 22 22 21 20 19 19 18 17 17 17 17 17 18 18 18 18 18 18 18 18 18 18 18 19 19 19 20 20 20 20 20 20 20 21 21 21
51 48 47 46 45 45 45 45 45 46 47 48 48 48 46 46 46 47 46 45 45 44 44 43 42 40 38 37 38 39 40 40 39 37 34 32 31 29 27 24 23 23 24 24 23 22 22 22 21 21 21 20 20 19 18 17 17 17 16 17 17 18 18 18 18 18 18 18 18 18 18 18 19 19 19 19 20 20 20 20 20 20 20 21 21 21
52 49 47 47 47 46 45 44 44 44 45 46 46 47 47 47 48 47 45 43 43 43 44 44 41 38 36 36 38 40 41 39 37 34 32 30 29 28 25 23 22 23 23 23 23 22 21 21 20 20 20 19 18 17 17 16 16 16 17 17 17 18 18 18 18 18 18 18 18 18 18 18 18 19 19 19 19 19 19 20 20 20 20 21 21 21
49 48 47 46 46 47 47 46 45 45 44 45 46 47 48 48 47 45 43 42 42 43 44 45 43 39 36 37 39 41 42 38 34 31 30 28 27 25 23 22 22 22 23 23 22 21 20 20 19 19 18 18 17 16 16 16 16 16 17 17 18 18 18 18 18 17 17 17 17 17 17 17 18 18 18 18 19 19 19 19 20 20 20 21 21 21
47 46 45 45 46 47 47 47 46 46 46 47 47 47 47 46 45 43 42 42 43 44 45 45 44 41 38 39 40 41 41 36 31 27 27 25 23 22 22 21 21 21 22 22 21 20 19 18 18 18 17 16 15 15 15 15 16 16 17 17 18 18 18 17 17 16 16 16 16 16 16 16 17 17 18 18 18 19 19 19 20 20 20 21 21 21
50 50 49 48 47 47 47 47 48 48 48 48 48 47 45 44 43 43 43 43 42 42 43 44 43 40 38 38 39 40 38 32 27 23 22 21 20 20 20 20 20 21 21 21 20 19 18 17 17 17 16 15 14 14 14 15 15 16 17 17 17 17 16 16 15 15 14 14 14 14 15 15 16 17 18 18 18 19 19 19 20 20 20 21 21 21
52 52 52 51 49 48 49 49 50 50 50 49 48 46 44 43 42 42 43 43 42 42 42 43 42 39 37 38 38 38 34 27 22 20 19 18 18 19 20 20 20 20 20 19 19 18 17 17 16 15 14 14 13 13 14 15 16 16 17 17 16 16 15 14 13 13 13 13 13 14 14 15 16 17 18 19 19 19 19 20 20 20 20 21 21 21
53 53 53 53 53 54 55 55 54 51 49 48 46 45 44 43 43 43 43 43 42 43 44 43 41 38 36 36 36 34 29 22 18 17 17 17 18 19 20 20 19 19 19 18 17 17 16 16 15 14 13 13 13 13 14 15 16 16 17 16 15 14 13 12 12 12 12 13 13 14 14 16 17 18 19 20 20 20 20 20 20 20 21 21 21 21
55 56 57 57 58 60 61 60 56 52 49 47 46 46 45 44 44 44 43 43 43 43 43 42 40 38 36 35 33 30 25 20 16 16 16 17 18 19 19 19 19 18 18 17 16 16 16 15 15 13 12 12 12 13 14 15 16 16 16 16 15 13 12 12 12 12 12 13 14 14 15 16 17 18 19 20 21 21 20 20 20 21 21 21 21 21
51 53 54 56 58 60 61 59 56 53 50 48 47 46 45 45 44 43 42 41 41 41 42 41 39 37 34 33 32 28 24 19 17 16 17 17 18 18 19 19 18 17 17 16 15 15 15 15 14 13 12 11 11 12 14 15 16 16 16 15 14 13 12 11 12 12 13 13 14 15 16 17 18 19 20 21 21 21 21 20 20 20 20 20 20 20
45 46 47 49 52 56 58 56 54 52 50 48 47 46 45 43 42 40 39 39 40 41 41 40 39 36 34 33 31 27 23 19 17 17 17 17 18 19 19 19 18 16 15 15 15 15 15 14 13 12 11 11 12 13 14 15 15 15 15 14 13 12 12 12 12 13 14 14 15 16 17 18 19 20 21 21 21 21 20 20 20 20 20 20 20 20
43 43 44 45 48 51 53 52 51 50 49 48 47 46 44 43 42 41 41 42 42 42 41 39 38 36 35 33 29 26 22 19 17 17 17 17 18 19 20 20 17 15 14 14 15 15 14 14 13 12 11 11 12 13 14 14 14 14 14 13 12 12 12 12 13 14 14 15 16 17 18 19 20 20 21 21 21 20 20 19 19 19 19 19 19 19
42 43 43 45 47 48 49 49 48 48 48 47 46 45 44 43 42 43 44 44 43 42 40 38 37 36 34 31 27 24 21 19 18 18 18 18 19 20 20 19 17 15 14 15 15 15 14 13 12 12 11 12 12 13 13 13 13 13 12 12 12 12 12 13 14 14 15 16 17 17 18 18 19 20 20 20 19 19 19 19 18 18 18 19 19 19
41 42 43 44 46 47 47 46 46 46 46 45 45 44 44 43 42 43 45 44 43 41 40 39 38 37 33 29 25 22 20 18 18 19 19 19 20 21 20 18 16 15 14 15 15 15 14 14 13 12 12 12 12 12 12 11 11 11 11 12 12 13 13 14 14 15 16 16 17 17 18 18 18 18 18 18 18 18 18 18 18 18 18 19 19 20
41 41 42 43 45 45 45 44 43 43 43 43 43 43 43 43 42 43 43 42 41 41 40 39 37 34 30 26 23 20 19 19 19 20 20 20 20 20 18 17 16 16 15 15 15 15 15 14 13 12 12 12 12 11 10 10 10 10 11 12 13 13 14 14 15 15 16 16 17 17 17 17 17 17 17 17 17 17 17 17 17 18 19 19 20 20
42 42 43 44 44 44 43 42 41 40 40 40 40 41 41 41 41 40 39 39 39 40 40 38 34 30 26 23 22 21 21 21 21 21 21 20 20 18 17 16 17 16 15 14 13 13 14 14 13 12 12 11 10 10 9 9 10 10 11 12 13 14 14 15 15 16 16 16 16 17 17 17 17 17 17 16 16 17 17 17 17 18 19 20 20 20
43 44 44 44 44 43 41 39 38 37 38 38 38 38 38 38 37 36 35 35 36 36 36 34 30 26 24 24 24 23 23 22 21 21 21 19 18 17 16 16 16 16 15 13 10 9 9 11 12 12 10 10 9 9 9 10 10 11 12 13 13 14 14 15 15 16 16 16 16 16 16 16 16 16 16 16 17 17 17 17 18 18 20 21 21 21
43 43 44 43 42 41 38 36 35 35 36 36 37 37 36 35 34 33 32 31 31 31 30 28 27 25 24 23 22 21 21 20 20 19 19 17 16 16 16 15 15 15 14 13 11 9 7 8 10 11 10 10 10 10 10 10 10 11 12 13 13 13 14 14 15 15 15 15 15 15 16 16 16 16 16 16 16 17 17 17 17 18 20 21 22 22
42 42 41 40 38 37 35 33 33 33 34 35 35 35 34 32 30 29 28 28 27 26 26 25 25 24 23 20 18 17 16 16 16 17 16 15 15 16 15 15 14 13 12 12 12 12 11 11 11 12 12 12 11 11 10 10 10 10 11 12 13 13 13 13 14 14 14 15 15 15 15 15 15 15 16 16 16 16 17 17 17 18 19 20 21 22
41 39 38 37 36 35 34 33 32 32 32 33 32 31 30 29 28 28 26 25 25 24 23 23 22 21 19 17 17 16 16 14 14 14 13 12 13 14 14 13 13 12 11 11 11 12 13 13 13 13 13 13 12 11 10 9 9 10 11 11 11 12 12 12 13 13 14 14 14 14 15 15 15 15 15 15 16 16 16 16 17 17 18 19 20 21
38 37 36 35 35 35 34 33 32 32 31 30 30 29 29 29 29 28 27 26 25 25 23 21 19 16 14 14 15 16 15 14 13 12 11 10 11 11 11 11 11 11 10 11 11 11 12 12 13 13 13 13 12 11 9 9 9 9 10 10 11 11 12 12 13 13 14 14 14 14 14 14 14 14 14 14 15 15 15 16 16 16 17 18 19 20
37 36 36 35 34 34 34 33 32 31 30 29 29 29 29 30 29 29 28 28 27 26 24 20 17 14 13 13 13 13 12 11 11 10 9 9 9 9 9 10 10 10 10 10 11 11 11 11 12 12 12 13 12 11 9 9 9 9 10 10 11 11 12 12 13 13 13 13 13 13 13 13 13 13 13 13 13 14 14 15 15 16 17 17 18 19
38 37 37 36 35 34 33 33 32 31 30 30 29 29 30 31 30 30 29 28 26 24 21 18 17 16 15 14 13 12 11 10 9 8 7 7 8 8 8 9 9 10 9 9 10 11 11 11 12 12 12 12 12 12 10 9 9 10 10 11 11 12 12 12 12 12 13 13 13 12 12 12 12 12 12 12 13 13 13 14 14 15 16 17 18 18
38 37 37 36 35 34 33 33 32 31 30 30 30 31 31 31 30 29 28 25 22 19 17 16 16 16 16 15 14 12 10 9 8 7 7 7 8 8 8 8 9 9 9 9 10 10 11 11 12 12 12 12 12 11 11 10 10 11 11 11 12 12 12 11 11 12 12 12 12 11 11 11 11 11 12 12 12 12 13 13 14 15 16 17 18 19
37 37 37 36 35 34 34 33 32 31 30 30 31 31 32 31 30 27 25 22 19 18 17 16 16 16 16 15 13 11 10 8 8 7 7 7 8 8 8 8 8 9 9 9 9 10 10 11 11 12 12 12 12 11 11 11 12 12 12 12 12 12 11 11 11 11 11 11 11 11 11 11 11 11 12 12 12 12 13 13 14 15 16 17 18 19
37 37 36 35 34 33 33 32 32 31 30 30 31 31 31 30 28 25 23 21 20 19 18 18 17 17 16 14 12 10 9 8 8 7 8 8 8 7 8 8 8 9 9 9 9 9 10 10 11 11 12 12 12 12 12 12 12 13 13 14 13 12 11 11 11 10 10 10 11 11 11 11 11 12 12 12 13 13 14 14 15 16 17 18 19 21
36 36 35 34 33 32 32 31 30 29 30 30 31 31 30 28 27 25 23 22 21 20 20 19 18 17 15 13 11 9 8 8 8 8 8 8 7 7 7 8 8 9 9 9 9 9 10 10 10 11 11 12 12 13 13 13 13 14 14 15 14 13 12 11 10 9 10 10 11 11 11 12 12 13 13 13 14 14 15 15 16 17 18 19 20 21
36 35 35 34 33 32 31 30 29 29 30 30 30 30 29 27 26 25 24 23 22 21 20 19 18 16 14 12 10 9 8 8 8 8 7 7 7 7 7 7 8 9 9 9 10 10 9 10 10 10 11 12 13 14 14 14 14 14 15 15 15 14 13 11 10 9 10 10 11 11 12 12 13 14 14 15 15 15 16 17 18 19 19 20 20 21
35 34 34 33 33 32 30 29 29 30 30 30 30 30 28 26 25 24 23 23 22 21 19 18 16 14 13 12 11 10 9 8 8 8 7 7 6 6 7 7 8 9 9 10 10 10 10 10 10 10 11 12 13 14 15 15 14 14 15 15 15 14 13 11 10 9 10 10 11 11 12 13 14 15 15 16 16 17 17 18 19 20 20 21 21 20
34 34 33 33 32 31 30 30 31 31 30 30 30 29 27 25 23 22 21 21 20 18 17 16 14 13 13 12 11 10 10 9 8 8 7 7 7 7 7 8 9 9 9 9 9 9 10 10 10 11 11 13 14 15 15 15 15 15 14 14 14 14 14 12 11 10 10 10 11 11 12 13 14 15 16 17 18 18 19 19 20 20 20 20 20 19
34 33 33 32 31 31 30 31 31 30 29 29 30 29 26 24 22 20 19 18 17 16 15 15 14 14 14 13 12 11 11 10 9 9 8 7 7 7 8 9 9 9 8 8 9 9 10 10 11 11 12 13 14 15 15 15 15 14 14 13 13 13 13 13 12 11 11 11 12 12 13 14 15 17 18 19 19 19 20 20 20 20 20 19 18 17
33 33 32 32 31 31 31 31 30 29 29 30 29 28 25 23 21 19 17 16 16 15 14 14 14 14 14 14 13 13 12 11 10 9 8 8 8 8 8 8 8 8 8 8 9 9 10 10 11 12 13 14 15 15 15 15 15 14 13 13 13 13 13 13 12 12 12 13 13 13 14 15 16 18 19 20 20 20 20 20 20 20 19 18 17 16
33 33 33 32 31 31 31 30 30 29 30 30 30 27 25 22 20 18 17 15 15 14 14 13 13 14 14 13 13 13 12 11 10 9 8 8 8 8 8 7 7 7 7 8 9 10 10 11 11 12 13 14 15 16 15 15 14 13 13 12 12 13 13 13 13 12 13 14 14 15 15 16 18 19 20 21 21 21 21 20 20 20 19 18 16 15
33 32 32 32 32 32 32 31 30 30 31 31 30 27 24 21 20 18 17 15 14 14 14 14 14 14 14 13 12 11 11 10 9 8 8 8 7 7 7 6 6 7 7 8 9 10 10 11 11 12 13 14 15 15 15 13 13 12 12 13 13 13 14 14 13 13 14 14 15 15 16 17 19 20 21 22 23 23 22 21 21 20 19 17 16 14
31 31 31 31 32 33 33 31 31 31 32 32 30 27 24 21 19 18 17 15 14 14 14 14 14 14 14 13 12 10 9 9 8 7 7 6 6 5 5 5 5 6 7 8 9 10 10 11 11 12 12 13 13 14 13 12 12 12 12 13 14 14 15 15 14 14 14 15 16 16 17 18 19 20 22 23 24 25 24 23 22 20 19 17 15 14
29 30 30 31 32 33 33 32 31 33 33 32 30 27 25 22 20 18 16 15 14 14 14 14 14 14 13 12 10 9 8 7 6 6 6 5 5 4 4 5 6 7 8 9 10 10 11 11 11 11 12 11 11 11 11 12 12 12 13 13 14 14 15 16 15 15 16 16 17 18 19 19 20 21 22 24 26 26 26 25 24 21 19 17 15 14
29 29 30 31 32 32 32 31 32 33 34 32 29 27 24 22 20 18 17 15 15 14 14 14 13 13 12 10 9 7 6 6 5 5 5 4 3 3 4 5 6 7 8 9 10 11 12 12 12 11 10 10 10 10 10 11 12 13 13 14 14 15 16 17 17 17 17 18 19 20 20 21 21 22 23 24 26 27 28 27 25 23 20 17 16 15
Wind_Direction
263 263 262 260 259 258 259 261 261 260 259 260 260 259 259 258 256 255 255 254 254 253 254 255 256 256 256 257 257 258 258 259 260 261 261 261 260 258 257 257 258 260 263 267 271 274 276 278 280 281 282 282 283 284 286 288 290 292 293 294 295 294 293 291 289 286 284 282 280 279 278 277 276 273 270 267 266 267 270 272 275 278 280 281 282 284
264 263 262 260 258 256 257 259 259 259 258 259 260 260 260 259 258 257 257 257 257 257 256 256 256 256 256 256 256 257 258 259 260 261 261 261 261 259 258 258 259 261 264 268 271 274 276 278 279 280 281 281 282 284 286 289 291 292 294 294 294 293 291 289 286 284 282 280 279 279 279 278 277 274 271 269 268 267 267 269 272 276 279 281 283 284
263 261 261 260 258 256 256 258 258 258 258 259 260 261 261 260 259 259 259 259 260 259 258 257 256 256 255 256 256 257 258 259 260 260 261 261 260 260 259 258 259 261 264 268 271 273 275 277 278 279 279 280 282 284 287 289 291 293 294 294 293 291 288 286 283 281 280 279 279 280 280 280 278 277 274 272 270 269 269 270 273 276 279 279 280 280
262 260 260 260 260 258 257 257 258 258 257 258 258 259 260 259 259 259 261 261 261 261 259 258 256 255 255 255 255 256 258 259 260 260 260 260 259 259 258 257 258 260 263 267 270 273 274 276 277 277 278 279 282 284 287 289 291 292 293 292 290 288 285 283 281 279 279 279 280 280 280 280 279 278 277 276 274 272 271 272 273 275 276 276 275 275
262 260 260 260 260 260 259 258 257 257 257 256 255 256 256 256 257 258 259 260 260 259 258 257 255 254 254 254 255 256 258 258 259 258 258 258 258 258 257 257 257 259 262 266 269 272 274 274 275 275 276 278 281 285 287 289 290 291 291 290 288 285 283 280 279 278 279 279 280 281 281 280 280 279 279 278 276 274 272 272 272 274 274 274 272 272
262 261 260 260 260 261 260 258 257 256 255 253 253 252 253 254 254 255 255 255 255 256 255 255 254 254 253 254 254 255 256 257 257 257 256 256 257 256 256 256 256 258 261 265 269 271 272 272 272 273 275 278 282 285 287 288 289 289 289 287 285 282 280 278 278 278 279 280 281 281 281 280 280 279 279 278 277 275 272 270 270 271 272 271 270 270
261 261 260 259 260 260 260 258 257 255 252 250 249 250 250 251 251 251 250 251 251 252 253 253 253 253 253 253 253 254 254 255 255 255 255 255 256 256 256 256 256 258 261 265 268 270 269 269 270 272 275 279 283 285 286 287 288 287 286 284 281 279 277 277 277 278 279 280 280 280 280 280 279 279 278 278 277 274 271 268 267 267 268 267 267 268
260 260 259 258 257 257 257 256 255 253 250 248 246 247 248 249 249 248 248 248 249 251 251 251 250 251 251 252 253 253 254 254 253 254 254 255 256 256 256 255 256 259 263 266 267 267 266 267 269 272 276 280 283 285 286 286 286 285 283 280 278 277 276 276 277 278 279 279 279 279 279 279 279 278 278 277 276 275 272 269 266 265 264 264 264 266
258 258 258 257 255 254 254 254 253 252 250 247 246 246 247 248 249 248 247 247 248 250 250 249 248 248 250 251 253 254 254 254 253 253 254 255 256 256 255 255 257 261 264 265 265 263 263 265 268 272 276 280 283 285 285 286 285 283 280 277 276 275 275 276 277 278 279 279 279 279 278 278 278 277 277 277 276 275 273 271 269 267 266 267 268 270
256 256 256 256 255 254 253 253 253 253 251 249 250 251 250 252 252 252 251 250 250 250 250 248 246 247 249 251 253 254 254 253 253 253 253 255 256 255 254 256 258 261 262 261 260 260 261 264 268 273 277 280 283 284 285 284 282 280 277 275 274 275 276 277 278 278 279 279 278 278 277 277 276 276 276 276 275 274 273 272 271 271 272 273 275 277
256 256 255 255 255 255 255 254 255 254 252 253 254 255 255 255 255 254 253 252 252 251 250 249 247 247 248 250 253 254 254 253 252 251 252 253 253 252 253 255 257 258 257 256 256 257 260 264 269 274 278 281 283 284 283 282 280 277 275 274 274 275 276 278 278 279 279 278 277 277 276 275 275 275 274 274 274 273 272 272 273 274 276 278 280 281
257 257 256 255 254 254 254 254 255 255 252 252 251 250 251 254 255 253 251 252 252 252 251 251 250 249 249 250 251 252 252 251 250 250 251 251 251 251 252 254 254 253 252 253 254 257 261 266 271 276 279 281 282 282 281 279 277 275 273 273 274 276 277 278 279 279 278 277 277 276 275 275 274 274 274 273 273 272 272 273 274 276 277 278 278 277
258 258 257 255 253 252 252 252 252 251 249 248 245 244 246 250 251 250 249 251 253 254 254 252 250 250 251 250 250 249 250 250 250 250 250 250 250 251 252 252 251 250 250 252 254 259 264 269 273 277 279 280 280 279 278 276 273 272 271 272 274 276 278 279 279 279 278 277 277 276 275 275 274 274 273 273 273 273 273 274 275 276 276 276 275 273
257 257 255 253 251 250 249 248 247 245 245 246 247 249 252 252 250 248 246 248 252 255 254 251 250 250 250 248 247 247 247 247 248 249 249 249 250 251 251 250 249 249 250 253 257 261 266 270 274 276 277 277 277 276 274 272 270 270 271 273 275 277 279 279 279 279 279 278 278 277 276 275 274 273 272 272 273 274 274 275 276 277 277 277 276 275
254 253 251 249 247 247 246 245 244 244 246 249 252 254 255 253 248 244 242 243 247 250 249 247 247 247 247 245 244 245 244 245 245 246 247 250 252 252 249 248 248 250 252 255 260 264 268 271 273 274 275 274 273 272 270 269 269 270 272 275 278 280 280 281 281 281 280 280 279 278 276 275 273 272 271 270 271 272 273 275 277 278 279 279 278 278
252 253 254 252 249 248 246 245 244 244 247 251 254 254 252 246 243 242 240 239 241 242 241 240 239 240 241 243 244 244 243 242 242 244 247 250 252 251 248 248 250 253 255 258 262 266 270 272 273 273 273 272 271 270 269 269 270 272 275 278 281 282 283 283 283 282 281 280 279 277 275 274 272 271 270 270 270 271 272 275 277 279 280 280 280 280
252 254 256 256 255 253 251 251 250 249 250 252 253 253 251 248 246 243 239 237 236 237 238 237 233 231 234 242 246 246 244 241 241 244 249 250 250 249 248 249 251 255 258 262 265 269 271 273 273 273 272 271 270 269 269 271 273 276 279 281 283 285 285 284 284 282 280 279 277 275 274 272 271 271 270 270 271 272 274 275 277 278 279 280 280 281
254 256 257 256 254 253 254 254 255 255 254 252 252 252 252 250 247 244 238 235 234 235 238 239 237 234 235 240 245 248 245 240 240 245 248 249 248 247 247 249 252 256 259 263 267 271 273 273 273 272 271 271 269 269 269 272 275 278 281 283 285 285 285 284 283 281 279 276 274 273 272 271 271 271 271 272 273 275 276 278 279 280 280 281 281 282
260 260 260 258 256 255 255 255 256 256 254 252 251 250 249 247 245 241 235 234 235 238 240 240 240 242 246 250 252 251 247 240 238 242 244 245 244 244 245 249 252 255 259 263 267 270 271 271 270 270 269 268 267 267 268 271 274 278 280 283 284 285 284 283 281 278 276 273 271 270 270 270 271 272 273 275 276 278 279 280 281 281 281 281 281 281
266 266 264 262 260 259 257 257 257 257 256 254 252 250 248 246 243 238 234 234 237 241 243 242 242 245 252 256 256 253 248 240 236 236 238 240 241 241 244 247 250 254 259 263 266 268 268 267 266 265 265 264 263 264 266 269 273 277 279 281 283 283 282 280 278 275 272 270 269 269 269 271 273 275 277 279 280 281 282 282 282 282 282 281 281 280
268 268 267 266 264 261 259 259 259 260 259 257 253 250 248 246 243 239 237 237 238 240 242 240 241 245 251 253 253 251 246 238 231 230 232 235 238 240 243 245 249 254 260 263 264 264 264 263 262 261 260 259 260 262 265 269 273 277 279 281 281 281 279 276 273 271 269 268 268 269 271 273 276 278 280 282 283 284 284 284 284 283 282 282 281 280
268 268 267 267 266 264 263 262 261 260 258 255 252 249 249 248 246 244 243 243 242 242 240 238 239 243 248 250 250 247 243 235 228 226 228 233 238 240 242 245 249 254 259 262 262 261 260 260 259 259 258 258 259 262 266 271 274 277 279 281 280 279 275 272 269 267 267 267 269 271 273 276 278 280 282 283 284 285 284 284 283 283 282 281 281 280
270 270 270 270 268 267 265 263 261 259 257 254 253 254 256 257 256 254 252 251 249 246 242 240 240 242 245 246 245 242 237 229 222 220 225 235 240 241 242 245 249 255 258 260 259 258 259 259 259 259 259 259 261 264 269 273 276 278 279 280 279 276 272 269 267 267 268 270 273 275 277 279 280 282 283 284 285 285 284 283 282 282 281 281 281 280
274 274 275 274 272 270 267 264 261 259 257 256 256 259 261 263 263 261 259 256 252 248 243 239 237 237 240 241 239 235 231 225 219 219 224 234 240 243 243 246 250 254 258 259 258 257 258 260 261 263 263 263 264 266 269 272 274 276 277 277 275 272 269 267 267 268 271 274 276 279 280 281 283 283 284 284 284 284 283 282 281 280 279 279 279 279
276 277 278 277 275 271 268 265 263 262 259 259 259 260 261 260 259 256 253 250 246 242 238 234 231 232 235 236 234 230 227 223 220 221 226 232 238 242 245 247 250 253 256 257 257 258 258 260 263 265 265 265 266 266 268 269 271 272 272 271 268 266 265 265 267 270 272 275 277 279 281 282 283 284 283 283 283 283 282 281 279 279 278 277 277 277
275 278 281 281 276 271 268 266 265 265 264 262 261 260 259 257 252 246 242 239 237 235 232 229 228 231 234 233 230 226 223 221 222 224 226 230 236 242 245 249 250 251 253 254 255 256 256 259 262 265 266 266 266 266 266 267 267 266 265 263 261 259 260 262 265 268 271 273 275 277 278 280 281 282 282 282 282 281 281 279 278 278 277 277 277 277
276 279 282 282 277 272 268 267 267 268 268 266 263 261 260 256 249 239 233 234 235 233 229 227 227 228 229 228 226 224 221 220 221 224 225 228 234 240 244 248 249 249 249 249 251 254 256 259 262 265 266 266 264 264 263 263 262 260 257 255 254 255 258 260 264 266 268 270 272 273 275 277 279 280 280 280 280 279 278 277 277 276 276 276 276 277
278 280 282 282 279 274 271 269 270 270 270 268 265 262 261 258 249 239 235 237 237 233 228 228 225 223 222 222 222 221 220 220 221 223 224 226 232 238 242 245 246 246 246 247 250 255 257 260 262 264 263 261 260 259 258 257 255 253 251 250 252 255 258 261 263 265 266 268 269 272 274 276 278 278 279 278 278 277 276 275 275 275 274 274 275 277
281 282 283 283 281 278 274 272 271 270 269 267 265 263 262 260 254 248 246 245 239 231 227 227 224 221 219 219 219 219 220 221 222 222 223 225 231 236 239 240 241 242 244 244 249 254 257 259 259 258 255 254 253 253 253 254 253 252 251 252 254 257 259 261 263 265 266 268 269 272 274 276 277 278 278 277 276 275 274 273 273 273 272 273 274 277
284 284 284 283 282 279 276 272 270 269 267 265 263 262 261 259 256 253 251 247 239 232 227 224 220 217 215 214 215 217 221 222 221 220 220 224 229 233 235 235 237 240 241 241 245 253 259 259 256 250 247 247 249 253 258 262 262 261 260 259 258 259 260 261 263 264 265 267 269 272 274 276 277 278 277 276 275 273 272 272 271 271 271 271 273 276
285 284 283 282 280 278 275 271 268 266 264 262 260 258 255 252 249 246 244 242 238 233 229 222 217 214 214 214 214 216 223 223 219 217 219 224 229 233 233 233 237 241 243 238 238 249 262 260 254 247 245 248 255 265 272 275 274 272 268 265 263 262 261 261 262 262 264 266 269 272 274 276 277 277 276 275 273 272 270 269 269 268 269 270 272 275
283 282 281 279 277 275 271 267 264 261 259 257 255 253 249 244 240 237 235 235 234 231 227 221 217 216 217 220 221 223 227 224 218 216 218 223 228 232 234 235 238 241 243 239 236 238 250 253 253 255 259 264 271 277 281 281 278 273 269 265 263 262 261 260 261 262 265 268 270 273 274 275 276 275 274 273 271 269 268 267 266 266 268 269 272 274
280 278 276 274 272 270 267 263 259 256 254 252 250 247 242 237 233 230 227 226 225 222 219 217 216 215 215 217 221 226 228 224 218 216 219 222 225 229 233 235 236 238 240 238 237 238 244 250 258 264 268 272 276 278 279 277 272 268 264 263 262 261 261 262 264 267 270 273 274 274 274 274 274 273 271 270 268 267 266 265 265 265 266 268 271 275
277 273 270 268 266 265 263 260 256 252 250 248 244 239 233 228 223 219 216 214 212 210 210 212 214 213 210 207 209 214 219 218 216 216 221 224 226 229 233 233 233 234 236 238 240 242 246 252 260 266 271 272 275 277 280 278 272 268 267 267 267 268 270 272 275 278 279 279 278 277 275 273 272 270 268 267 266 265 264 264 263 264 266 269 272 276
273 268 265 263 261 260 259 256 253 249 246 241 235 229 223 217 212 207 203 201 200 200 202 205 208 210 209 207 208 211 215 215 216 218 224 225 228 231 233 232 231 232 234 240 245 250 254 258 263 269 275 279 280 283 286 285 281 277 277 278 280 283 285 286 287 287 285 283 280 277 274 272 270 267 266 265 264 263 263 263 264 265 267 269 272 275
268 264 261 258 256 255 253 251 248 244 239 233 227 220 215 209 203 197 194 193 194 194 194 194 193 195 201 210 216 220 220 220 222 225 227 227 228 229 229 229 230 232 235 242 250 256 261 266 270 274 279 287 292 293 292 288 286 286 287 290 293 295 296 294 293 290 287 283 278 274 271 269 267 265 264 264 263 264 264 265 266 267 268 269 271 272
265 260 257 254 252 250 248 246 242 238 232 226 220 215 209 202 196 192 190 190 189 188 185 182 181 184 192 202 211 218 223 226 227 227 226 224 224 223 223 226 231 235 238 245 254 261 267 272 277 281 285 291 297 301 300 295 292 293 296 298 300 301 301 298 294 290 285 281 277 273 270 267 265 264 264 265 266 267 268 268 269 270 271 271 271 271
260 256 253 251 248 246 243 240 236 232 227 221 216 211 204 197 192 189 188 185 181 176 173 174 178 186 194 201 209 215 219 220 220 219 219 221 221 219 219 226 234 240 244 250 258 266 273 279 286 291 293 294 296 299 302 301 302 304 305 303 303 304 305 301 296 289 284 280 277 274 271 269 268 269 270 271 273 274 274 274 275 275 276 276 277 276
255 251 248 245 243 240 237 234 230 228 224 220 215 208 200 193 188 186 182 176 170 165 166 174 183 191 198 205 210 212 212 210 210 213 216 219 221 221 222 229 238 246 251 256 262 270 278 284 290 294 296 298 299 299 300 303 306 309 309 307 305 306 307 304 298 291 285 282 280 277 275 275 275 277 279 281 283 284 283 283 283 284 285 285 284 284
251 247 243 241 239 236 233 229 227 225 222 219 213 204 195 188 184 180 175 169 163 163 170 179 188 196 202 206 208 207 205 206 209 213 217 219 221 224 229 236 245 253 259 264 268 274 280 285 289 291 294 297 299 301 301 304 308 310 310 311 313 314 311 305 298 293 288 284 283 282 282 282 283 284 286 288 290 291 292 292 292 292 291 291 290 289
247 242 238 236 234 231 228 226 224 223 221 217 208 197 189 185 181 177 172 168 167 169 176 184 192 199 204 206 205 203 202 205 210 214 217 220 223 228 235 244 253 261 268 272 276 279 282 286 288 290 292 294 297 299 301 306 309 311 313 314 315 313 307 302 297 293 288 285 284 285 287 289 290 291 293 294 296 297 297 297 296 295 294 293 292 292
241 236 233 231 228 225 223 222 221 221 219 212 201 192 187 185 181 176 172 170 171 176 182 189 195 199 200 200 200 200 201 204 209 214 218 221 227 234 243 252 261 267 274 278 281 283 284 285 287 290 293 295 297 299 303 307 311 313 314 315 313 308 302 299 297 294 290 288 288 290 292 295 297 298 298 299 299 299 299 297 296 295 295 295 294 294
236 233 231 229 227 224 223 221 219 217 212 203 195 190 188 185 181 177 173 173 175 179 185 192 196 198 197 195 195 196 198 202 207 212 216 223 231 241 252 261 268 272 277 280 282 284 284 284 286 288 291 293 296 300 305 311 314 315 315 313 311 309 306 304 300 296 292 292 293 296 298 299 300 300 299 300 299 299 298 297 296 295 295 295 296 295
235 232 230 228 226 225 223 220 217 213 205 197 192 189 187 184 180 176 175 176 180 184 188 192 195 197 198 196 193 191 193 197 202 207 213 221 232 244 255 264 269 273 277 280 281 283 284 284 285 287 289 292 297 302 307 312 315 316 314 311 307 306 305 305 302 298 295 296 298 300 302 302 302 301 300 300 300 299 299 298 296 296 295 295 295 295
235 231 228 226 224 223 221 219 215 209 201 195 192 189 186 182 178 177 178 181 185 188 190 191 192 193 195 195 193 191 190 192 195 201 209 219 231 244 254 262 267 271 274 276 278 280 282 284 287 290 292 296 301 305 310 314 315 314 311 308 304 301 300 301 302 304 305 306 306 307 307 306 304 303 302 301 301 300 298 298 297 297 297 297 296 296
233 229 225 223 222 222 220 218 213 205 198 195 192 189 185 180 178 179 182 186 189 189 190 190 192 194 195 194 193 191 189 189 192 198 206 218 230 242 251 258 263 267 269 271 273 276 279 284 288 293 298 302 305 309 313 315 314 312 310 307 303 301 301 303 307 311 312 313 312 311 310 307 305 303 303 303 302 301 299 298 298 298 299 299 298 296
232 228 224 223 222 221 220 217 210 202 197 194 192 188 184 180 179 180 184 188 190 189 188 189 193 197 200 198 195 192 190 190 193 200 209 221 231 240 246 251 256 259 262 266 270 275 279 285 292 298 303 306 309 312 315 315 314 312 311 308 305 304 305 309 313 315 314 313 313 312 309 307 305 303 303 303 302 301 300 299 298 298 299 299 299 296
232 228 225 224 223 221 218 213 207 201 197 194 191 187 184 182 182 182 184 186 188 189 188 190 193 197 200 200 198 195 192 194 198 206 216 226 235 242 246 248 252 257 262 268 273 279 285 292 298 304 307 309 311 314 317 317 316 313 311 309 308 309 311 313 316 315 313 312 310 309 307 305 304 303 303 303 302 302 301 301 300 299 299 300 299 296
232 228 226 225 225 221 216 211 205 201 198 193 189 185 184 183 184 184 184 185 186 189 191 193 195 197 199 197 195 193 192 195 202 211 222 232 240 247 254 260 266 270 275 280 284 289 295 300 305 309 310 311 311 314 317 319 318 315 311 310 311 312 313 314 315 314 312 310 308 306 304 302 301 301 301 301 302 302 302 302 301 301 301 302 301 297
230 228 226 227 225 221 215 209 204 200 197 192 188 184 183 183 183 183 183 184 186 190 193 196 198 199 199 196 192 189 191 196 206 218 230 239 247 257 270 279 284 288 292 293 295 299 302 307 311 314 315 314 313 314 317 318 318 315 312 312 313 314 314 314 314 314 312 310 307 305 303 301 300 300 299 299 300 301 302 302 303 304 305 306 303 300
229 227 226 226 223 219 213 208 203 200 196 191 187 184 182 180 180 180 181 183 186 189 192 196 199 201 200 195 190 188 191 199 213 228 239 245 256 270 282 286 290 293 295 297 300 304 309 315 321 326 326 320 317 317 319 320 319 317 314 315 315 315 314 314 315 315 312 309 306 304 302 301 300 300 299 298 298 299 301 303 305 307 309 309 308 306
Height
1363 1363 1364 1365 1365 1364 1363 1363 1364 1364 1364 1364 1364 1364 1365 1366 1367 1367 1367 1367 1367 1367 1367 1367 1367 1367 1367 1368 1368 1368 1369 1369 1369 1368 1368 1368 1368 1368 1368 1368 1368 1368 1368 1368 1368 1368 1368 1368 1368 1367 1367 1367 1366 1365 1364 1363 1363 1362 1362 1361 1360 1360 1359 1358 1357 1357 1357 1356 1356 1355 1355 1355 1355 1355 1355 1355 1355 1355 1355 1355 1355 1355 1355 1355 1354 1354
1360 1361 1361 1361 1361 1361 1360 1360 1360 1360 1361 1361 1362 1362 1362 1363 1363 1363 1364 1364 1364 1364 1364 1364 1363 1364 1364 1364 1365 1365 1365 1366 1365 1365 1365 1365 1365 1365 1365 1365 1365 1365 1365 1365 1365 1365 1365 1365 1365 1365 1365 1364 1363 1362 1362 1361 1360 1359 1359 1358 1357 1357 1356 1356 1355 1355 1354 1354 1353 1353 1353 1353 1352 1352 1352 1352 1352 1352 1352 1352 1352 1352 1353 1352 1352 1352
1358 1357 1357 1356 1357 1357 1356 1356 1356 1357 1357 1358 1358 1359 1360 1360 1360 1360 1360 1360 1361 1361 1361 1361 1360 1360 1361 1361 1361 1362 1362 1362 1362 1362 1362 1362 1362 1362 1362 1362 1362 1362 1362 1362 1362 1362 1363 1362 1362 1362 1362 1361 1361 1360 1359 1358 1357 1357 1356 1356 1355 1354 1354 1353 1352 1352 1352 1351 1351 1351 1351 1350 1350 1350 1350 1350 1350 1350 1350 1350 1350 1351 1351 1351 1351 1351
1354 1354 1353 1352 1352 1352 1352 1352 1352 1352 1354 1355 1355 1356 1357 1357 1357 1357 1357 1357 1357 1358 1358 1357 1357 1357 1357 1357 1357 1358 1358 1359 1359 1359 1358 1358 1358 1358 1358 1358 1358 1358 1359 1359 1359 1360 1360 1360 1360 1359 1359 1358 1358 1357 1356 1355 1354 1354 1353 1353 1352 1352 1351 1351 1350 1350 1349 1349 1349 1348 1348 1348 1348 1348 1348 1347 1347 1348 1348 1348 1348 1348 1348 1349 1349 1348
1350 1350 1349 1349 1349 1348 1349 1349 1349 1348 1350 1351 1351 1352 1352 1353 1353 1353 1353 1353 1353 1353 1354 1354 1353 1353 1353 1354 1354 1354 1355 1355 1355 1355 1355 1355 1355 1355 1355 1355 1355 1356 1356 1356 1356 1357 1357 1357 1357 1357 1357 1356 1355 1354 1353 1352 1352 1351 1351 1350 1350 1349 1348 1348 1348 1347 1347 1347 1347 1346 1346 1346 1346 1346 1346 1346 1346 1346 1346 1346 1346 1346 1347 1347 1347 1346
1345 1346 1346 1346 1345 1345 1345 1346 1346 1345 1345 1346 1347 1347 1348 1349 1349 1349 1349 1348 1349 1349 1349 1349 1350 1350 1350 1350 1351 1351 1352 1352 1352 1352 1352 1352 1352 1351 1351 1352 1352 1352 1353 1353 1353 1354 1354 1354 1354 1354 1353 1353 1352 1351 1351 1350 1349 1348 1348 1347 1347 1347 1346 1346 1345 1345 1345 1344 1344 1344 1344 1344 1343 1343 1343 1343 1343 1343 1343 1344 1344 1344 1344 1344 1344 1344
1341 1342 1342 1343 1342 1342 1342 1342 1341 1341 1341 1342 1342 1343 1343 1344 1345 1345 1344 1344 1344 1345 1345 1346 1346 1346 1346 1347 1347 1347 1348 1348 1348 1348 1348 1348 1348 1348 1348 1349 1349 1349 1350 1350 1350 1351 1351 1352 1352 1351 1351 1350 1349 1348 1347 1347 1347 1346 1345 1345 1344 1344 1344 1343 1343 1343 1342 1342 1342 1342 1342 1342 1342 1341 1341 1341 1341 1341 1341 1342 1342 1342 1342 1342 1341 1341
1337 1337 1339 1339 1339 1338 1338 1337 1337 1337 1337 1337 1338 1338 1339 1340 1341 1341 1341 1341 1341 1341 1342 1342 1342 1342 1342 1343 1343 1344 1344 1345 1345 1345 1345 1345 1345 1345 1345 1346 1346 1347 1347 1347 1347 1348 1348 1349 1348 1348 1347 1347 1346 1345 1345 1344 1344 1343 1343 1342 1342 1342 1341 1341 1341 1340 1340 1340 1340 1340 1339 1339 1339 1339 1339 1339 1339 1339 1339 1339 1339 1339 1339 1339 1339 1338
1333 1333 1334 1335 1336 1335 1334 1334 1333 1333 1334 1334 1334 1334 1335 1336 1337 1338 1338 1338 1337 1337 1337 1338 1338 1338 1339 1339 1340 1340 1341 1341 1342 1342 1342 1341 1342 1342 1342 1342 1343 1343 1344 1344 1345 1345 1346 1346 1346 1345 1345 1344 1343 1342 1342 1342 1341 1341 1340 1340 1339 1339 1339 1339 1338 1338 1338 1338 1337 1337 1337 1337 1337 1337 1337 1337 1337 1337 1337 1337 1337 1337 1337 1336 1336 1336
1330 1330 1330 1331 1332 1332 1331 1330 1330 1331 1331 1331 1331 1331 1332 1333 1334 1335 1335 1334 1334 1334 1334 1334 1334 1335 1335 1335 1336 1337 1337 1338 1338 1338 1338 1338 1338 1339 1339 1340 1340 1341 1341 1341 1342 1342 1343 1343 1343 1342 1342 1341 1340 1340 1339 1339 1338 1338 1338 1337 1337 1337 1337 1336 1336 1336 1336 1336 1335 1335 1335 1335 1335 1335 1335 1335 1335 1334 1334 1334 1334 1334 1334 1334 1334 1334
1327 1327 1327 1327 1327 1328 1328 1327 1327 1328 1329 1329 1329 1328 1329 1330 1331 1332 1331 1330 1330 1330 1330 1330 1330 1331 1331 1331 1332 1332 1333 1334 1334 1335 1335 1335 1336 1336 1336 1337 1337 1338 1338 1338 1339 1340 1340 1340 1340 1339 1338 1338 1337 1337 1336 1336 1336 1335 1335 1335 1335 1334 1334 1334 1334 1334 1333 1333 1333 1333 1333 1333 1333 1333 1333 1333 1332 1332 1332 1332 1332 1332 1332 1332 1332 1332
1324 1324 1324 1324 1324 1324 1324 1324 1325 1325 1326 1326 1326 1325 1325 1325 1326 1327 1326 1325 1325 1326 1326 1326 1326 1326 1326 1327 1327 1327 1328 1330 1330 1331 1331 1332 1332 1332 1333 1334 1335 1335 1336 1336 1337 1337 1337 1337 1337 1336 1335 1335 1334 1334 1334 1333 1333 1333 1333 1332 1332 1332 1332 1332 1332 1331 1331 1331 1331 1331 1331 1331 1331 1331 1331 1331 1331 1331 1330 1330 1330 1330 1330 1330 1330 1331
1321 1321 1321 1320 1320 1320 1319 1320 1321 1321 1322 1322 1321 1320 1319 1319 1320 1321 1321 1321 1322 1323 1323 1322 1322 1322 1322 1323 1323 1323 1324 1326 1327 1327 1328 1328 1329 1330 1331 1332 1332 1333 1333 1334 1334 1334 1334 1334 1333 1333 1332 1332 1332 1331 1331 1331 1331 1331 1331 1330 1330 1330 1330 1330 1329 1329 1329 1329 1328 1328 1328 1328 1328 1328 1329 1329 1329 1328 1328 1328 1328 1328 1328 1328 1328 1328
1316 1317 1317 1316 1315 1315 1315 1315 1316 1316 1316 1316 1316 1315 1314 1315 1316 1316 1317 1318 1320 1321 1321 1320 1319 1319 1319 1319 1319 1320 1321 1322 1323 1324 1324 1325 1326 1327 1328 1329 1330 1330 1331 1331 1331 1331 1331 1331 1330 1330 1330 1329 1329 1329 1329 1328 1328 1328 1328 1328 1328 1328 1327 1327 1327 1327 1327 1326 1326 1326 1326 1326 1326 1326 1327 1327 1327 1327 1326 1326 1326 1326 1326 1326 1326 1326
1312 1313 1313 1312 1311 1310 1310 1310 1310 1310 1311 1312 1312 1313 1313 1313 1312 1312 1313 1314 1316 1317 1317 1317 1317 1317 1316 1316 1316 1317 1317 1318 1319 1320 1321 1322 1323 1324 1325 1326 1327 1328 1328 1328 1328 1328 1328 1328 1327 1327 1327 1327 1326 1326 1326 1326 1326 1326 1326 1326 1326 1326 1325 1325 1325 1324 1324 1324 1324 1324 1324 1324 1324 1324 1324 1324 1324 1324 1324 1324 1324 1324 1323 1323 1323 1323
1308 1309 1309 1309 1308 1307 1307 1306 1306 1306 1307 1309 1310 1310 1310 1309 1308 1308 1309 1310 1312 1313 1313 1314 1314 1314 1313 1313 1313 1314 1314 1315 1316 1317 1318 1319 1320 1321 1322 1324 1324 1325 1325 1326 1326 1326 1325 1325 1325 1324 1324 1324 1324 1324 1324 1323 1323 1323 1323 1323 1323 1323 1323 1322 1322 1322 1322 1322 1322 1322 1322 1322 1322 1322 1322 1322 1322 1322 1322 1322 1322 1322 1321 1321 1321 1321
1304 1305 1305 1304 1304 1304 1303 1303 1303 1303 1304 1305 1306 1306 1306 1305 1305 1305 1306 1307 1308 1309 1309 1310 1311 1310 1310 1311 1311 1311 1311 1312 1313 1314 1316 1316 1317 1318 1320 1321 1322 1322 1322 1323 1323 1322 1322 1322 1322 1321 1321 1321 1321 1321 1321 1321 1321 1321 1321 1321 1321 1321 1321 1320 1320 1320 1319 1319 1319 1319 1320 1320 1320 1320 1320 1320 1320 1320 1320 1320 1320 1319 1319 1319 1319 1318
1301 1301 1301 1301 1300 1299 1300 1300 1300 1301 1301 1302 1302 1302 1302 1302 1302 1303 1303 1304 1304 1305 1306 1307 1307 1307 1307 1307 1307 1308 1308 1309 1311 1312 1313 1314 1315 1316 1317 1318 1318 1319 1320 1320 1320 1319 1319 1319 1318 1318 1318 1318 1318 1318 1318 1318 1318 1318 1319 1319 1318 1318 1318 1318 1318 1317 1317 1317 1317 1317 1317 1317 1317 1318 1318 1318 1318 1318 1318 1317 1317 1317 1317 1317 1317 1316
1297 1298 1298 1297 1297 1297 1296 1296 1296 1297 1297 1297 1297 1298 1299 1299 1300 1300 1300 1300 1300 1301 1302 1303 1303 1304 1304 1304 1304 1304 1305 1307 1309 1310 1311 1311 1312 1313 1314 1315 1315 1316 1317 1317 1317 1316 1316 1316 1316 1316 1316 1316 1316 1316 1316 1316 1316 1316 1316 1317 1316 1316 1316 1316 1316 1315 1315 1315 1315 1315 1316 1316 1316 1316 1316 1316 1316 1316 1315 1315 1315 1315 1315 1315 1314 1314
1295 1294 1295 1294 1294 1294 1293 1292 1292 1292 1293 1294 1294 1295 1295 1296 1297 1297 1297 1297 1297 1298 1299 1300 1300 1301 1302 1302 1302 1302 1303 1305 1307 1308 1308 1309 1310 1310 1311 1312 1312 1313 1313 1314 1314 1313 1313 1313 1313 1313 1313 1313 1314 1314 1314 1314 1314 1314 1314 1314 1314 1314 1314 1314 1313 1313 1313 1313 1313 1313 1313 1314 1314 1314 1314 1313 1313 1313 1313 1313 1313 1313 1312 1312 1312 1312
1292 1291 1291 1291 1291 1291 1289 1288 1288 1289 1290 1291 1292 1292 1292 1292 1293 1293 1293 1294 1294 1295 1296 1297 1297 1298 1299 1300 1299 1300 1301 1304 1305 1305 1306 1307 1307 1308 1308 1309 1310 1311 1311 1311 1311 1311 1311 1311 1311 1311 1311 1311 1312 1312 1312 1312 1312 1312 1312 1312 1312 1312 1312 1312 1312 1312 1312 1312 1312 1312 1312 1312 1312 1312 1312 1311 1311 1311 1311 1311 1311 1310 1310 1310 1310 1310
1288 1287 1286 1287 1287 1287 1286 1285 1285 1286 1287 1288 1289 1289 1289 1289 1289 1289 1290 1291 1292 1292 1293 1294 1295 1296 1297 1297 1297 1298 1300 1302 1303 1303 1303 1304 1305 1305 1306 1307 1308 1308 1307 1308 1308 1308 1308 1308 1308 1308 1309 1309 1310 1310 1310 1310 1310 1310 1310 1310 1310 1310 1310 1310 1310 1310 1310 1310 1310 1310 1310 1310 1310 1310 1309 1309 1309 1309 1309 1308 1308 1308 1308 1308 1308 1307
1284 1283 1282 1282 1282 1282 1282 1282 1282 1283 1283 1284 1284 1285 1285 1285 1285 1286 1287 1287 1288 1289 1290 1291 1292 1293 1294 1295 1296 1297 1298 1300 1301 1301 1302 1302 1302 1303 1305 1305 1305 1305 1305 1305 1306 1306 1306 1306 1306 1306 1307 1307 1307 1307 1308 1308 1308 1308 1307 1307 1307 1308 1308 1308 1308 1308 1308 1308 1307 1307 1308 1307 1307 1307 1307 1307 1307 1307 1307 1307 1306 1306 1306 1306 1306 1305
1281 1280 1279 1279 1278 1278 1278 1279 1279 1280 1280 1281 1282 1282 1282 1282 1283 1283 1284 1285 1286 1287 1287 1288 1289 1290 1291 1292 1293 1295 1296 1297 1298 1299 1299 1300 1301 1302 1303 1303 1302 1302 1302 1303 1303 1303 1303 1303 1303 1304 1305 1305 1305 1306 1306 1306 1306 1306 1306 1306 1306 1306 1306 1306 1306 1306 1306 1306 1306 1306 1306 1306 1306 1306 1305 1305 1305 1305 1304 1304 1304 1304 1304 1304 1303 1303
1277 1277 1276 1276 1275 1275 1275 1275 1276 1276 1277 1277 1279 1280 1280 1281 1281 1281 1282 1282 1283 1283 1284 1285 1286 1288 1288 1289 1291 1292 1294 1295 1296 1297 1297 1298 1299 1300 1301 1300 1300 1300 1300 1300 1301 1301 1301 1301 1301 1302 1303 1303 1303 1304 1304 1304 1304 1304 1304 1304 1304 1304 1304 1304 1304 1304 1304 1304 1304 1303 1303 1303 1303 1303 1303 1303 1303 1302 1302 1302 1302 1302 1302 1302 1301 1301
1274 1273 1273 1273 1272 1272 1272 1272 1272 1273 1274 1274 1276 1277 1277 1277 1277 1277 1278 1278 1279 1280 1281 1283 1284 1285 1286 1287 1288 1290 1292 1293 1294 1295 1295 1297 1297 1298 1298 1298 1298 1298 1298 1298 1298 1298 1298 1299 1300 1300 1301 1301 1302 1302 1302 1302 1302 1302 1302 1302 1302 1302 1302 1302 1302 1302 1302 1302 1302 1302 1302 1302 1302 1301 1301 1301 1301 1300 1300 1300 1300 1300 1299 1299 1299 1298
1271 1271 1270 1270 1269 1269 1268 1269 1269 1270 1270 1271 1272 1272 1273 1273 1274 1274 1274 1274 1275 1277 1278 1280 1281 1282 1283 1284 1286 1288 1290 1291 1292 1292 1293 1295 1296 1296 1295 1296 1296 1296 1296 1296 1296 1296 1297 1297 1298 1299 1299 1300 1300 1300 1300 1300 1300 1300 1300 1300 1300 1300 1301 1301 1300 1300 1300 1300 1300 1300 1300 1300 1300 1300 1299 1299 1298 1298 1298 1298 1297 1297 1297 1297 1297 1296
1268 1268 1268 1267 1267 1266 1266 1266 1266 1267 1267 1267 1268 1269 1269 1270 1270 1270 1270 1271 1272 1273 1275 1276 1277 1278 1280 1282 1284 1286 1287 1288 1289 1290 1292 1293 1293 1293 1293 1293 1293 1293 1294 1294 1294 1295 1295 1296 1297 1297 1297 1298 1298 1298 1298 1298 1299 1299 1299 1299 1299 1299 1298 1298 1298 1298 1298 1298 1298 1298 1298 1298 1298 1297 1297 1297 1297 1296 1296 1296 1296 1296 1295 1295 1294 1294
1265 1265 1265 1264 1263 1263 1263 1263 1263 1263 1264 1264 1265 1266 1266 1266 1266 1266 1267 1268 1269 1270 1272 1272 1274 1276 1278 1280 1282 1284 1285 1286 1287 1288 1290 1291 1291 1291 1291 1291 1291 1291 1292 1292 1293 1293 1293 1294 1295 1295 1296 1296 1296 1297 1297 1297 1297 1297 1297 1297 1297 1297 1297 1297 1296 1296 1296 1296 1296 1296 1296 1296 1296 1295 1295 1295 1294 1294 1294 1294 1294 1294 1293 1293 1292 1292
1262 1262 1262 1261 1261 1261 1260 1260 1261 1261 1261 1262 1262 1263 1263 1263 1263 1263 1264 1265 1266 1267 1269 1270 1272 1275 1277 1279 1280 1281 1282 1282 1284 1287 1288 1288 1288 1288 1289 1289 1289 1289 1290 1291 1291 1292 1291 1292 1292 1293 1293 1294 1294 1295 1295 1295 1295 1295 1295 1295 1295 1294 1294 1294 1294 1294 1294 1294 1294 1294 1294 1294 1293 1293 1293 1292 1292 1292 1292 1292 1292 1292 1291 1291 1290 1290
1259 1259 1259 1258 1258 1257 1257 1257 1258 1258 1259 1260 1260 1260 1260 1260 1261 1261 1262 1263 1264 1266 1267 1269 1272 1274 1276 1276 1277 1277 1277 1280 1282 1285 1286 1286 1286 1286 1286 1286 1286 1287 1288 1289 1290 1290 1289 1289 1290 1291 1292 1292 1292 1293 1293 1293 1293 1293 1292 1292 1292 1292 1292 1292 1292 1292 1292 1292 1292 1292 1292 1292 1291 1291 1291 1291 1290 1290 1290 1290 1290 1290 1289 1288 1288 1287
1257 1256 1256 1255 1255 1255 1255 1255 1255 1256 1256 1257 1257 1257 1257 1258 1258 1260 1261 1262 1264 1265 1267 1269 1271 1272 1273 1274 1274 1274 1275 1278 1281 1283 1284 1284 1283 1284 1284 1284 1284 1285 1286 1287 1288 1288 1288 1287 1288 1289 1289 1290 1291 1291 1291 1291 1291 1291 1290 1290 1290 1290 1290 1290 1290 1290 1290 1290 1290 1290 1289 1289 1289 1289 1289 1288 1288 1288 1288 1288 1288 1287 1287 1286 1286 1285
1254 1254 1253 1253 1252 1252 1253 1253 1252 1252 1253 1253 1253 1254 1255 1256 1257 1259 1261 1262 1264 1265 1267 1268 1269 1270 1271 1272 1273 1274 1276 1278 1280 1281 1282 1282 1281 1281 1281 1282 1282 1283 1284 1285 1286 1286 1287 1287 1287 1287 1288 1288 1289 1289 1289 1289 1289 1289 1288 1288 1288 1288 1288 1288 1288 1288 1288 1288 1287 1287 1287 1287 1287 1287 1287 1286 1286 1286 1286 1286 1286 1286 1285 1284 1284 1283
1252 1252 1251 1251 1250 1250 1251 1251 1251 1250 1251 1251 1252 1252 1253 1255 1256 1258 1260 1262 1263 1265 1266 1267 1268 1269 1269 1270 1272 1273 1275 1277 1278 1279 1279 1279 1279 1279 1279 1280 1281 1282 1282 1283 1284 1284 1284 1285 1285 1286 1286 1287 1287 1287 1287 1287 1287 1287 1287 1286 1286 1286 1286 1286 1286 1285 1285 1285 1285 1285 1285 1285 1285 1285 1284 1284 1284 1284 1284 1284 1284 1283 1283 1282 1282 1281
1249 1249 1249 1248 1248 1248 1248 1248 1248 1248 1249 1249 1250 1251 1252 1253 1255 1256 1258 1260 1262 1264 1265 1266 1267 1268 1269 1269 1271 1272 1274 1275 1277 1277 1277 1277 1277 1277 1278 1278 1279 1280 1281 1282 1282 1282 1283 1283 1283 1284 1284 1284 1284 1285 1285 1285 1285 1285 1284 1284 1284 1284 1284 1283 1283 1283 1283 1283 1282 1282 1283 1283 1282 1282 1282 1282 1282 1282 1282 1282 1282 1282 1281 1281 1280 1280
1247 1247 1247 1246 1246 1246 1246 1246 1246 1247 1247 1248 1249 1250 1252 1252 1253 1255 1257 1258 1260 1261 1262 1264 1265 1267 1268 1270 1271 1272 1273 1274 1275 1275 1275 1275 1276 1276 1277 1277 1278 1279 1279 1280 1280 1280 1281 1281 1281 1282 1282 1282 1282 1282 1283 1283 1283 1282 1282 1282 1282 1282 1282 1281 1281 1281 1281 1281 1280 1281 1281 1281 1280 1280 1280 1280 1280 1280 1280 1280 1280 1279 1279 1279 1279 1278
1245 1244 1244 1244 1244 1243 1244 1244 1244 1245 1245 1247 1248 1249 1250 1251 1252 1254 1255 1257 1258 1259 1260 1262 1264 1266 1267 1269 1270 1271 1272 1272 1273 1273 1273 1274 1275 1275 1276 1276 1277 1277 1278 1278 1278 1279 1279 1279 1279 1279 1280 1280 1280 1280 1280 1281 1281 1280 1280 1280 1280 1280 1279 1279 1279 1279 1279 1278 1278 1278 1279 1278 1278 1278 1278 1278 1278 1278 1278 1278 1278 1277 1277 1277 1277 1276
1242 1242 1242 1242 1242 1242 1242 1242 1242 1243 1244 1245 1247 1248 1249 1250 1252 1253 1254 1256 1257 1258 1259 1261 1263 1265 1267 1268 1269 1270 1270 1271 1271 1271 1272 1272 1273 1274 1274 1275 1276 1276 1277 1277 1277 1277 1277 1277 1277 1277 1277 1278 1278 1278 1278 1278 1278 1278 1278 1278 1278 1278 1277 1277 1277 1277 1277 1277 1276 1277 1277 1277 1277 1276 1276 1276 1276 1276 1275 1275 1275 1275 1275 1275 1274 1274
1240 1240 1240 1240 1240 1240 1240 1240 1241 1242 1243 1244 1246 1247 1248 1249 1251 1252 1253 1255 1256 1257 1259 1261 1262 1264 1266 1267 1267 1268 1268 1269 1269 1270 1271 1272 1272 1273 1273 1274 1275 1275 1275 1276 1276 1276 1275 1275 1275 1275 1275 1276 1276 1276 1276 1276 1276 1275 1276 1276 1276 1276 1276 1276 1275 1275 1275 1274 1274 1274 1274 1274 1274 1274 1274 1274 1273 1273 1273 1273 1273 1272 1272 1272 1271 1271
1238 1238 1238 1238 1238 1238 1239 1239 1240 1241 1242 1243 1245 1246 1247 1249 1250 1251 1252 1253 1255 1256 1258 1260 1262 1263 1265 1265 1266 1266 1267 1267 1267 1268 1269 1270 1271 1272 1272 1273 1273 1274 1274 1274 1274 1274 1274 1274 1274 1274 1274 1274 1273 1274 1274 1273 1273 1273 1273 1273 1273 1273 1274 1273 1273 1273 1273 1273 1272 1272 1272 1272 1272 1272 1272 1272 1271 1271 1270 1270 1270 1270 1269 1269 1268 1267
1236 1236 1237 1237 1237 1237 1238 1239 1239 1241 1242 1242 1243 1245 1247 1248 1249 1250 1251 1252 1254 1255 1257 1259 1261 1262 1263 1263 1264 1264 1265 1265 1266 1267 1268 1269 1270 1271 1272 1272 1272 1272 1272 1272 1272 1272 1273 1273 1273 1272 1272 1272 1272 1272 1272 1272 1272 1272 1271 1271 1271 1271 1272 1272 1272 1271 1271 1271 1271 1271 1270 1270 1270 1270 1269 1269 1269 1268 1268 1268 1267 1267 1267 1267 1266 1265
1235 1235 1235 1235 1236 1236 1237 1238 1239 1240 1241 1242 1243 1245 1246 1247 1247 1248 1249 1251 1252 1254 1256 1258 1259 1260 1261 1262 1262 1263 1263 1264 1265 1266 1267 1268 1269 1270 1270 1271 1271 1271 1271 1271 1271 1271 1271 1271 1271 1271 1271 1271 1270 1270 1269 1270 1270 1270 1269 1269 1269 1269 1269 1270 1270 1270 1270 1269 1269 1269 1268 1268 1267 1267 1267 1266 1266 1266 1266 1266 1265 1265 1264 1264 1263 1262
1233 1233 1233 1234 1234 1235 1236 1238 1239 1240 1241 1242 1243 1245 1246 1246 1247 1248 1249 1250 1252 1254 1256 1257 1258 1259 1259 1260 1260 1261 1262 1263 1264 1265 1266 1267 1267 1268 1269 1269 1270 1270 1269 1269 1269 1270 1270 1270 1270 1270 1270 1269 1268 1268 1267 1267 1268 1268 1268 1267 1267 1267 1266 1267 1268 1268 1268 1267 1267 1267 1267 1266 1265 1265 1264 1264 1264 1264 1263 1263 1263 1262 1262 1262 1261 1260
1232 1232 1232 1233 1234 1235 1236 1238 1238 1239 1240 1242 1243 1244 1245 1246 1247 1248 1249 1251 1252 1254 1255 1257 1258 1258 1258 1259 1259 1260 1260 1261 1262 1264 1265 1266 1267 1267 1268 1268 1268 1268 1268 1268 1268 1268 1268 1268 1268 1268 1268 1267 1267 1266 1266 1266 1266 1266 1266 1266 1266 1265 1265 1265 1266 1267 1266 1266 1266 1265 1265 1264 1263 1262 1262 1262 1261 1261 1261 1260 1260 1260 1259 1259 1258 1258
1231 1231 1231 1232 1233 1234 1236 1237 1237 1239 1240 1242 1243 1244 1245 1246 1247 1248 1249 1251 1252 1253 1255 1256 1257 1257 1257 1258 1258 1259 1259 1260 1262 1263 1264 1265 1266 1266 1267 1267 1267 1267 1267 1267 1267 1267 1267 1267 1267 1267 1266 1266 1265 1265 1264 1264 1264 1264 1264 1264 1264 1264 1264 1264 1264 1264 1264 1263 1263 1263 1262 1262 1261 1260 1259 1259 1258 1258 1258 1258 1257 1257 1257 1257 1256 1256
1231 1231 1231 1231 1232 1234 1235 1235 1237 1238 1240 1242 1243 1244 1245 1246 1247 1248 1250 1251 1252 1253 1254 1255 1256 1256 1256 1257 1257 1258 1258 1259 1261 1262 1263 1264 1265 1265 1266 1266 1266 1266 1266 1266 1266 1266 1266 1266 1265 1265 1265 1264 1263 1263 1263 1263 1263 1262 1263 1263 1263 1262 1262 1262 1262 1262 1262 1261 1261 1260 1260 1260 1259 1258 1257 1256 1256 1256 1255 1255 1255 1254 1254 1254 1253 1253
1230 1230 1231 1231 1232 1233 1234 1235 1236 1238 1240 1241 1242 1244 1245 1246 1247 1248 1250 1251 1252 1252 1253 1254 1255 1255 1256 1256 1257 1257 1258 1259 1260 1261 1262 1263 1264 1264 1265 1265 1265 1265 1265 1265 1265 1265 1265 1264 1264 1264 1263 1262 1262 1261 1262 1262 1261 1261 1261 1261 1261 1261 1260 1260 1260 1260 1260 1259 1259 1258 1258 1257 1257 1256 1255 1254 1253 1252 1252 1252 1252 1252 1252 1252 1251 1251
1230 1231 1231 1232 1232 1233 1233 1234 1235 1237 1239 1240 1242 1243 1245 1246 1247 1248 1249 1250 1251 1252 1253 1253 1254 1255 1255 1256 1257 1257 1258 1259 1260 1261 1262 1262 1263 1263 1263 1263 1264 1264 1264 1264 1264 1264 1263 1263 1263 1262 1262 1261 1260 1260 1260 1260 1260 1260 1259 1259 1259 1258 1258 1258 1258 1258 1258 1257 1257 1257 1256 1255 1254 1253 1252 1252 1250 1249 1249 1249 1249 1249 1249 1249 1248 1248
1231 1231 1231 1232 1232 1232 1232 1233 1235 1237 1238 1239 1241 1243 1245 1246 1247 1248 1248 1249 1250 1251 1252 1252 1253 1254 1255 1255 1256 1257 1257 1258 1259 1260 1260 1261 1262 1262 1262 1262 1262 1262 1262 1262 1262 1262 1262 1262 1262 1261 1261 1260 1259 1259 1258 1259 1259 1258 1258 1258 1257 1257 1257 1256 1256 1256 1256 1256 1255 1254 1254 1253 1253 1252 1251 1249 1247 1246 1246 1246 1246 1246 1246 1247 1246 1246
1231 1231 1232 1232 1232 1232 1232 1233 1235 1236 1237 1239 1241 1242 1244 1246 1247 1247 1248 1249 1250 1251 1251 1252 1252 1253 1254 1255 1255 1256 1257 1257 1258 1259 1259 1260 1260 1260 1261 1261 1261 1261 1261 1261 1261 1261 1260 1260 1260 1260 1260 1260 1259 1258 1258 1257 1257 1257 1257 1257 1256 1256 1255 1254 1254 1254 1254 1253 1253 1252 1252 1251 1251 1250 1249 1247 1246 1244 1243 1242 1242 1242 1243 1243 1243 1242
1230 1231 1232 1232 1232 1232 1232 1233 1234 1236 1237 1239 1241 1242 1244 1245 1246 1247 1248 1249 1249 1250 1251 1252 1252 1253 1254 1254 1255 1256 1256 1257 1257 1258 1258 1259 1259 1259 1259 1259 1260 1260 1259 1259 1259 1259 1259 1258 1258 1258 1259 1258 1258 1258 1257 1257 1256 1256 1255 1255 1254 1254 1253 1252 1252 1252 1252 1251 1250 1250 1249 1249 1248 1247 1247 1246 1244 1242 1240 1239 1238 1239 1240 1240 1240 1239